Flight Track Log - Related Links

Times and Time Zones

All times are in EDT time to prevent confusion due to time zone crossing. See the XOJ784 flight status page for this flight to view local times or setup timezone preferences in your user account.

Time Position Orientation Groundspeed Altitude Reporting Facility
EDT Latitude Longitude Course Direction KTS MPH feet Rate Location/Type
Sat 02:36:19 PM 39.7167 -86.2833 12° North 176 203 1,600  Level Indianapolis TRACON
Sat 02:38:05 PM 39.8072 -86.2586 12° North 293 337 6,300 2,874 Climbing Indianapolis Center
Sat 02:39:06 PM 39.8044 -86.3581 268° West 294 338 9,600 2,732 Climbing Indianapolis Center
Sat 02:40:08 PM 39.7686 -86.4564 245° Southwest 303 349 11,900 2,488 Climbing Indianapolis Center
Sat 02:41:09 PM 39.7550 -86.6042 263° West 343 395 14,700 2,390 Climbing Indianapolis Center
Sat 02:42:11 PM 39.7464 -86.7328 265° West 352 405 16,800 1,902 Climbing Indianapolis Center
Sat 02:43:12 PM 39.7369 -86.8678 265° West 370 426 18,600 1,854 Climbing Indianapolis Center
Sat 02:44:14 PM 39.7286 -87.0064 266° West 384 442 20,600 1,951 Climbing Indianapolis Center
Sat 02:45:15 PM 39.7214 -87.1492 266° West 397 457 22,600 1,951 Climbing Indianapolis Center
Sat 02:46:17 PM 39.7375 -87.2967 278° West 410 472 24,600 1,839 Climbing Indianapolis Center
Sat 02:47:19 PM 39.7531 -87.4483 278° West 423 487 26,400 1,805 Climbing Indianapolis Center
Sat 02:48:20 PM 39.7644 -87.6081 275° West 440 506 28,300 1,707 Climbing Indianapolis Center
Sat 02:49:22 PM 39.7364 -87.8022 259° West 455 524 29,900 1,561 Climbing Indianapolis Center
Sat 02:50:23 PM 39.7133 -87.9703 260° West 466 536 31,500 1,024 Climbing Indianapolis Center
Sat 02:51:25 PM 39.6883 -88.1419 259° West 480 552 32,000 823 Climbing Indianapolis Center
Sat 02:52:27 PM 39.6631 -88.3253 260° West 508 585 33,200 976 Climbing Indianapolis Center
Sat 02:53:28 PM 39.6350 -88.5081 259° West 515 593 34,000 1,122 Climbing Indianapolis Center
Sat 02:54:30 PM 39.6083 -88.6936 259° West 522 601 35,500 1,707 Climbing Indianapolis Center
Sat 02:55:31 PM 39.6025 -88.8756 268° West 514 592 37,500 1,974 Climbing Indianapolis Center
Sat 02:55:46 PM 39.6103 -88.9153 284° West 512 589 38,000 1,948 Climbing Kansas City Center
Sat 02:56:48 PM 39.6719 -89.1139 292° West 497 572 40,000 976 Climbing Kansas City Center
Sat 02:57:49 PM 39.7231 -89.2839 291° West 500 575 40,000  Level Kansas City Center
Sat 02:58:51 PM 39.7736 -89.4544 291° West 503 579 40,000  Level Kansas City Center
Sat 02:59:55 PM 39.8239 -89.6264 291° West 506 582 40,000  Level Kansas City Center
Sat 03:00:57 PM 39.8442 -89.8094 278° West 511 588 40,000  Level Kansas City Center
Sat 03:01:59 PM 39.8389 -89.9914 268° West 507 583 40,000  Level Kansas City Center
Sat 03:03:00 PM 39.8317 -90.1711 267° West 502 578 40,000  Level Kansas City Center
Sat 03:04:02 PM 39.8239 -90.3903 267° West 502 578 40,000  Level Kansas City Center
Sat 03:05:04 PM 39.8164 -90.5683 267° West 497 572 40,000  Level Kansas City Center
Sat 03:06:06 PM 39.8089 -90.7458 267° West 493 567 40,000  Level Kansas City Center
Sat 03:07:07 PM 39.8014 -90.9239 267° West 493 567 40,000  Level Kansas City Center
Sat 03:08:09 PM 39.7914 -91.1142 266° West 489 563 40,000  Level Kansas City Center
Sat 03:09:11 PM 39.7828 -91.2919 266° West 493 567 40,000  Level Kansas City Center
Sat 03:10:13 PM 39.7747 -91.4717 267° West 499 574 40,000  Level Kansas City Center
Sat 03:11:14 PM 39.7647 -91.6494 266° West 498 573 40,000  Level Kansas City Center
Sat 03:12:16 PM 39.7558 -91.8242 266° West 492 566 40,000  Level Kansas City Center
Sat 03:13:18 PM 39.7472 -91.9986 266° West 489 563 40,000  Level Kansas City Center
Sat 03:14:20 PM 39.7361 -92.2086 266° West 487 560 40,000 -585 Level Kansas City Center
Sat 03:15:21 PM 39.7253 -92.3856 266° West 490 564 38,800 -976 Descending Kansas City Center
Sat 03:16:23 PM 39.7144 -92.5675 266° West 499 574 38,000 -1,122 Descending Kansas City Center
Sat 03:17:24 PM 39.7039 -92.7486 266° West 503 579 36,500 -2,146 Descending Kansas City Center
Sat 03:18:26 PM 39.6919 -92.9283 265° West 503 579 33,600 -3,290 Descending Kansas City Center
Sat 03:19:28 PM 39.6831 -93.0978 266° West 486 559 29,700 -3,561 Descending Kansas City Center
Sat 03:20:29 PM 39.6736 -93.2433 265° West 423 487 26,300 -3,512 Descending Kansas City Center
Sat 03:21:31 PM 39.6619 -93.4086 265° West 391 450 22,500 -3,290 Descending Kansas City Center
Sat 03:22:33 PM 39.6539 -93.5408 266° West 380 437 19,500 -2,976 Descending Kansas City Center
Sat 03:23:34 PM 39.6458 -93.6678 265° West 361 415 16,400 -2,878 Descending Kansas City Center
Sat 03:24:36 PM 39.6344 -93.7947 263° West 343 395 13,600 -2,293 Descending Kansas City Center
Sat 03:25:37 PM 39.5875 -93.8869 237° Southwest 320 368 11,700 -1,659 Descending Kansas City Center
Sat 03:26:39 PM 39.5342 -93.9839 235° Southwest 297 342 10,200 -1,258 Descending Kansas City Center
Sat 03:27:41 PM 39.4900 -94.0678 236° Southwest 295 339 9,100 -1,122 Descending Kansas City Center
Sat 03:28:42 PM 39.4386 -94.1628 235° Southwest 289 333 7,900 -1,122 Descending Kansas City Center
Sat 03:29:44 PM 39.3953 -94.2442 235° Southwest 287 330 6,800 -1,113 Descending Kansas City Center
Sat 03:30:46 PM 39.3475 -94.3328 235° Southwest 270 311 5,600 -1,073 Descending Kansas City Center
Sat 03:31:47 PM 39.3050 -94.4100 235° Southwest 274 315 4,600 -976 Descending Kansas City Center
Sat 03:32:49 PM 39.2633 -94.4881 235° Southwest 276 318 3,600 -927 Descending Kansas City Center
Sat 03:33:50 PM 39.2139 -94.5650 230° Southwest 247 284 2,700 -878 Descending Kansas City Center
Sat 03:34:52 PM 39.1683 -94.5811 195° South 173 199 1,800 -829 Descending Kansas City Center
Sat 03:35:53 PM 39.1303 -94.5917 192° South 134 154 1,000 -787 Descending Kansas City Center
Sat 03:37:00 PM 39.1229 -94.5928 180° South  Level Estimated

Login

Don't have an account? Register now (free) for customized features, flight alerts, and more!